Вернуться в каталог

NOAA 16 DEB

АктивенSSO
NORAD 41354·DEBRIS·🇺🇸 United States

Запущен Sep 21, 2000 с Vandenberg Space Force Base

Loading…

Ближайшие Пролёты (ближайшие 24 часа)

TLE

СвежийSource: Space-Track

Эпоха: Sep 14, 2026, 08:42 UTC

1 41354U 00055HX  26257.36290800  .00001701  00000-0  76067-3 0  9995
2 41354  98.6544 309.2881 0022001 176.1602 183.9749 14.23794707548455

Отслеживайте NOAA 16 DEB в реальном времени с AllMySat

Download on the App Store